This is the latest recevied weather packets stored in our database for station/object KD8FRE. If no packets are shown the sender has not sent any weather packets the latest 10 day(s).
| Time | Temp. | Humidity | Pressure | Rain* | Wind** | Luminosity | Snow |
|---|---|---|---|---|---|---|---|
| 1778005034 | 12.22° C | 52% | 1007.6 hPa | 0 mm | - | 267 W/m² | - |
| 1778004732 | 12.22° C | 53% | 1007.4 hPa | 0 mm | - | 221 W/m² | - |
| 1778004428 | 12.22° C | 54% | 1007.4 hPa | 0 mm | - | 265 W/m² | - |
| 1778004125 | 12.22° C | 55% | 1007.2 hPa | 0 mm | - | 236 W/m² | - |
| 1778003821 | 12.22° C | 56% | 1007.1 hPa | 0 mm | - | 252 W/m² | - |
| 1778003517 | 12.22° C | 56% | 1007.3 hPa | 0 mm | - | 273 W/m² | - |
| 1778003214 | 12.22° C | 55% | 1007.3 hPa | 0 mm | - | 275 W/m² | - |
| 1778002910 | 12.22° C | 56% | 1007.1 hPa | 0 mm | - | 231 W/m² | - |
| 1778002607 | 11.67° C | 60% | 1007.1 hPa | 0 mm | - | 198 W/m² | - |
| 1778002304 | 11.67° C | 59% | 1007 hPa | 0 mm | - | 194 W/m² | - |
| 1778002001 | 12.22° C | 60% | 1007.1 hPa | 0 mm | - | 213 W/m² | - |
| 1778001698 | 12.22° C | 58% | 1007.3 hPa | 0 mm | - | 255 W/m² | - |
| 1778001397 | 11.67° C | 59% | 1007.3 hPa | 0 mm | - | 225 W/m² | - |
| 1778001095 | 11.67° C | 59% | 1007.1 hPa | 0 mm | - | 238 W/m² | - |
| 1778000792 | 12.22° C | 67% | 1007.1 hPa | 0 mm | - | 284 W/m² | - |
| 1778000489 | 11.67° C | 67% | 1007 hPa | 0 mm | - | 357 W/m² | - |
| 1778000184 | 11.67° C | 67% | 1007.2 hPa | 0 mm | - | 562 W/m² | - |
| 1777999880 | 11.11° C | 71% | 1007.2 hPa | 0 mm | - | 395 W/m² | - |
| 1777999575 | 11.11° C | 71% | 1007.4 hPa | 0 mm | - | 451 W/m² | - |
| 1777999274 | 10.56° C | 71% | 1007.2 hPa | 0 mm | - | 241 W/m² | - |
| 1777998972 | 10.56° C | 72% | 1007.6 hPa | 0 mm | - | 164 W/m² | - |
| 1777998669 | 10.56° C | 72% | 1007.4 hPa | 0 mm | - | 134 W/m² | - |
| 1777998366 | 10.56° C | 73% | 1007.6 hPa | 0 mm | - | 154 W/m² | - |
| 1777998064 | 10.56° C | 76% | 1007.6 hPa | 0 mm | - | 155 W/m² | - |
| 1777997761 | 10.56° C | 80% | 1007.6 hPa | 0 mm | - | 162 W/m² | - |
* Rain latest hour (hover to see other rain measurements)
** Current wind speed in m/s (hover to see current wind gust speed)